TimeCST,TemperatureF,Dew PointF,Humidity,Sea Level PressureIn,VisibilityMPH,Wind Direction,Wind SpeedMPH,Gust SpeedMPH,PrecipitationIn,Events,Conditions,WindDirDegrees,DateUTC
12:15 AM,29.7,24.6,81,30.50,10.0,North,19.6,26.5,N/A,,Overcast,10,2013-11-12 06:15:00
12:35 AM,29.1,23.7,80,30.50,10.0,North,20.7,27.6,N/A,,Overcast,10,2013-11-12 06:35:00
12:55 AM,28.4,22.5,78,30.51,10.0,North,20.7,27.6,N/A,,Scattered Clouds,10,2013-11-12 06:55:00
1:15 AM,28.2,22.3,78,30.52,10.0,North,19.6,27.6,N/A,,Scattered Clouds,360,2013-11-12 07:15:00
1:35 AM,27.7,22.5,81,30.54,10.0,North,15.0,25.3,N/A,,Clear,360,2013-11-12 07:35:00
1:55 AM,27.5,22.6,82,30.54,10.0,North,15.0,20.7,N/A,,Clear,360,2013-11-12 07:55:00
2:15 AM,27.1,23.4,86,30.55,10.0,North,16.1,-,N/A,,Scattered Clouds,360,2013-11-12 08:15:00
2:35 AM,26.6,21.9,82,30.56,10.0,North,11.5,21.9,N/A,,Scattered Clouds,350,2013-11-12 08:35:00
2:55 AM,25.7,21.9,86,30.56,10.0,North,16.1,-,N/A,,Clear,350,2013-11-12 08:55:00
3:15 AM,24.8,21.4,87,30.57,10.0,North,13.8,-,N/A,,Clear,350,2013-11-12 09:15:00
3:35 AM,24.4,20.7,86,30.57,10.0,North,12.7,-,N/A,,Clear,350,2013-11-12 09:35:00
3:55 AM,23.7,19.8,85,30.59,10.0,NNW,15.0,19.6,N/A,,Clear,340,2013-11-12 09:55:00
4:15 AM,23.5,19.4,84,30.60,10.0,NNW,16.1,-,N/A,,Clear,340,2013-11-12 10:15:00
4:35 AM,23.0,18.9,84,30.61,10.0,NNW,13.8,19.6,N/A,,Clear,340,2013-11-12 10:35:00
4:55 AM,22.5,18.5,85,30.61,10.0,NNW,13.8,-,N/A,,Clear,340,2013-11-12 10:55:00
5:15 AM,22.1,18.1,85,30.63,10.0,NNW,12.7,-,N/A,,Clear,340,2013-11-12 11:15:00
5:35 AM,21.9,18.0,85,30.64,10.0,NNW,13.8,-,N/A,,Clear,340,2013-11-12 11:35:00
5:55 AM,21.7,17.6,84,30.65,10.0,NNW,13.8,-,N/A,,Clear,340,2013-11-12 11:55:00
6:15 AM,21.2,17.4,85,30.66,10.0,NNW,13.8,-,N/A,,Clear,340,2013-11-12 12:15:00
6:35 AM,21.0,17.4,86,30.67,10.0,NNW,12.7,-,N/A,,Clear,340,2013-11-12 12:35:00
6:55 AM,21.0,17.2,85,30.69,10.0,NNW,12.7,-,N/A,,Clear,340,2013-11-12 12:55:00
7:15 AM,21.6,17.2,83,30.71,10.0,NNW,13.8,-,N/A,,Clear,340,2013-11-12 13:15:00
7:35 AM,22.1,17.6,83,30.71,10.0,NNW,15.0,-,N/A,,Clear,340,2013-11-12 13:35:00
7:55 AM,22.6,17.8,82,30.72,10.0,NNW,13.8,-,N/A,,Clear,340,2013-11-12 13:55:00
8:15 AM,23.4,18.5,82,30.72,10.0,North,15.0,19.6,N/A,,Clear,350,2013-11-12 14:15:00
8:35 AM,23.7,18.7,81,30.72,10.0,NNW,13.8,-,N/A,,Clear,340,2013-11-12 14:35:00
8:55 AM,24.6,19.4,81,30.73,10.0,North,12.7,-,N/A,,Clear,350,2013-11-12 14:55:00
9:15 AM,25.2,19.4,79,30.74,10.0,NNW,13.8,-,N/A,,Clear,340,2013-11-12 15:15:00
9:35 AM,26.4,19.9,77,30.74,10.0,North,12.7,-,N/A,,Clear,350,2013-11-12 15:35:00
9:55 AM,27.1,20.5,76,30.75,10.0,NNW,13.8,17.3,N/A,,Clear,340,2013-11-12 15:55:00
10:15 AM,27.7,21.2,77,30.76,10.0,North,11.5,-,N/A,,Clear,350,2013-11-12 16:15:00
10:35 AM,28.2,21.2,75,30.76,10.0,North,11.5,16.1,N/A,,Scattered Clouds,360,2013-11-12 16:35:00
10:55 AM,28.6,20.7,72,30.75,10.0,North,13.8,-,N/A,,Scattered Clouds,350,2013-11-12 16:55:00
11:15 AM,28.9,21.2,73,30.74,10.0,North,12.7,17.3,N/A,,Clear,360,2013-11-12 17:15:00
11:35 AM,29.8,21.6,71,30.74,10.0,NNW,15.0,-,N/A,,Scattered Clouds,340,2013-11-12 17:35:00
11:55 AM,30.2,21.4,70,30.73,10.0,NNW,13.8,17.3,N/A,,Scattered Clouds,330,2013-11-12 17:55:00
12:15 PM,30.6,20.8,67,30.72,10.0,North,12.7,17.3,N/A,,Scattered Clouds,350,2013-11-12 18:15:00
12:35 PM,31.1,21.0,66,30.72,10.0,NNW,12.7,-,N/A,,Scattered Clouds,340,2013-11-12 18:35:00
12:55 PM,32.0,21.2,64,30.72,10.0,North,16.1,20.7,N/A,,Scattered Clouds,350,2013-11-12 18:55:00
1:15 PM,31.6,20.1,62,30.72,10.0,NNW,12.7,-,N/A,,Clear,340,2013-11-12 19:15:00
1:35 PM,31.8,20.5,63,30.71,10.0,NNW,13.8,18.4,N/A,,Clear,340,2013-11-12 19:35:00
1:55 PM,32.0,20.7,63,30.71,10.0,NW,11.5,17.3,N/A,,Clear,320,2013-11-12 19:55:00
2:15 PM,32.0,20.5,63,30.71,10.0,NNW,12.7,-,N/A,,Scattered Clouds,330,2013-11-12 20:15:00
2:35 PM,32.0,19.9,61,30.71,10.0,NNW,11.5,-,N/A,,Clear,340,2013-11-12 20:35:00
2:55 PM,32.0,19.6,60,30.71,10.0,NNW,12.7,-,N/A,,Clear,340,2013-11-12 20:55:00
3:15 PM,32.0,19.0,59,30.71,10.0,North,12.7,-,N/A,,Clear,350,2013-11-12 21:15:00
3:35 PM,31.6,19.0,60,30.71,10.0,NNW,11.5,-,N/A,,Clear,340,2013-11-12 21:35:00
3:55 PM,31.1,18.7,60,30.71,10.0,NNW,10.4,16.1,N/A,,Clear,330,2013-11-12 21:55:00
4:15 PM,30.2,18.9,63,30.71,10.0,NNW,9.2,-,N/A,,Clear,340,2013-11-12 22:15:00
4:35 PM,29.3,19.2,66,30.71,10.0,NNW,9.2,-,N/A,,Clear,340,2013-11-12 22:35:00
4:55 PM,28.4,20.1,71,30.70,10.0,NNW,8.1,-,N/A,,Clear,330,2013-11-12 22:55:00
5:15 PM,27.0,19.9,75,30.69,10.0,NNW,5.8,-,N/A,,Clear,330,2013-11-12 23:15:00
5:35 PM,26.1,19.4,76,30.69,10.0,NNW,6.9,-,N/A,,Clear,330,2013-11-12 23:35:00
5:55 PM,25.5,19.2,77,30.69,10.0,NNW,5.8,-,N/A,,Clear,340,2013-11-12 23:55:00
6:15 PM,24.8,19.2,79,30.69,10.0,NNW,6.9,-,N/A,,Clear,340,2013-11-13 00:15:00
6:35 PM,23.9,19.0,82,30.70,10.0,NNW,6.9,-,N/A,,Clear,340,2013-11-13 00:35:00
6:55 PM,23.7,19.2,83,30.69,10.0,NNW,5.8,-,N/A,,Clear,340,2013-11-13 00:55:00
7:15 PM,23.0,19.0,85,30.70,10.0,NNW,5.8,-,N/A,,Clear,340,2013-11-13 01:15:00
7:35 PM,23.0,18.9,84,30.70,10.0,North,5.8,-,N/A,,Clear,350,2013-11-13 01:35:00
7:55 PM,22.1,18.5,86,30.70,10.0,NNW,4.6,-,N/A,,Clear,340,2013-11-13 01:55:00
8:15 PM,23.4,18.9,83,30.69,10.0,Calm,Calm,-,N/A,,Clear,0,2013-11-13 02:15:00
8:35 PM,23.7,20.3,87,30.70,10.0,Calm,Calm,-,N/A,,Clear,0,2013-11-13 02:35:00
8:55 PM,22.3,18.9,87,30.70,10.0,Calm,Calm,-,N/A,,Clear,0,2013-11-13 02:55:00
9:15 PM,22.3,19.0,87,30.70,10.0,Calm,Calm,-,N/A,,Clear,0,2013-11-13 03:15:00
9:35 PM,22.5,18.3,84,30.70,10.0,Calm,Calm,-,N/A,,Clear,0,2013-11-13 03:35:00
9:55 PM,22.5,18.3,84,30.69,10.0,Calm,Calm,-,N/A,,Clear,0,2013-11-13 03:55:00
10:15 PM,20.5,17.6,89,30.69,10.0,Calm,Calm,-,N/A,,Clear,0,2013-11-13 04:15:00
10:35 PM,20.1,18.1,92,30.68,10.0,Calm,Calm,-,N/A,,Clear,0,2013-11-13 04:35:00
10:55 PM,20.1,17.8,91,30.68,10.0,Calm,Calm,-,N/A,,Clear,0,2013-11-13 04:55:00
11:15 PM,20.1,18.5,93,30.68,10.0,Calm,Calm,-,N/A,,Clear,0,2013-11-13 05:15:00
11:35 PM,20.3,18.9,94,30.69,10.0,Calm,Calm,-,N/A,,Clear,0,2013-11-13 05:35:00
11:55 PM,19.9,18.3,93,30.69,10.0,Calm,Calm,-,N/A,,Clear,0,2013-11-13 05:55:00